Regional Weather Roundup
Issued by NWS

Home | Current Version | Previous Version | Graphics & Text | Print | Product List | Glossary On
Versions: 1 2 3 4 5 6 7 8 9 10 11 12 13 14 15 16 17 18 19 20 21 22 23 24 25 26 27 28 29 30 31 32 33 34 35 36 37 38 39 40 41 42 43 44 45 46 47 48 49 50
000
ASUS45 KTFX 200004
RWRMT
MONTANA HOURLY WEATHER ROUNDUP
NATIONAL WEATHER SERVICE GREAT FALLS MT
504 PM MST FRI DEC 19 2014

NOTE: "FAIR" INDICATES FEW OR NO CLOUDS BELOW 12000 FEET WITH NO
SIGNIFICANT WEATHER AND/OR OBSTRUCTIONS TO VISIBILITY.

* THESE STATIONS ARE NOT UNDER NWS QUALITY CONTROL. THEY DO NOT
   REPORT WEATHER SUCH AS PRECIPITATION OR FOG.

MTZ001>007-043-200100-
WEST OF THE DIVIDE
CITY           SKY/WX    TMP DP  RH WIND       PRES   REMARKS
KALISPELL      LGT RAIN  36  34  92 S10       29.89R WCI  29
MISSOULA       FOG       32  30  92 NW6       29.95R VSB 3    WCI  26
BUTTE          CLOUDY    34  28  79 N5        29.91R WCI  29
MULLAN PASS    LGT SNOW  28  25  89 VRB6      29.87R VSB 1 1/2 WCI  21
* ESSEX        N/A       33  32  96 N/A        N/A
* LINCOLN      N/A       34  31  89 SW3        N/A
* LOOKOUT PASS N/A       32  32 100 E2         N/A
* POLSON       N/A       35  35 100 SE1        N/A
* RONAN APT    CLOUDY    34  34 100 N/A        N/A
* SEELEY LAKE  N/A       32  31  96 N/A        N/A
* THOMP F APT  CLOUDY    27  26  96 S7G15      N/A   WCI  19
$$

MTZ008-052>055-200100-
SOUTHWEST MONTANA
CITY           SKY/WX    TMP DP  RH WIND       PRES   REMARKS
BOZEMAN        CLOUDY    34  27  76 SW5       29.91R WCI  29
DILLON         CLOUDY    34  27  76 CALM      29.93R
* W YELLOWSTON MOCLDY    29  26  89 SW4G11     N/A
* THREE FORKS  CLOUDY    41  41 100 SW13       N/A
* BOULDER HILL N/A       35  24  64 S14G19     N/A   WCI  26
* MONIDA PASS  N/A       26  26 100 SE14G24    N/A   WCI  14
* RAYNOLDS PAS N/A       27  10  49 SE16       N/A   WCI  15
* WHITEHALL    N/A       39  27  62 SW17G26    N/A   WCI  30
* WISE RIVER   N/A       32  30  92 N/A        N/A
$$

MTZ009>010-012-014-046-048-049-054-200100-
EAST SLOPES AND CENTRAL MONTANA
CITY           SKY/WX    TMP DP  RH WIND       PRES   REMARKS
CUT BANK       CLOUDY    37  30  76 W15       29.74S WCI  28
GREAT FALLS    CLOUDY    43  28  56 SW18      29.78S
HELENA         CLOUDY    37  28  70 CALM      29.87R
* DEARBORN     N/A       45  28  51 S8         N/A
* EAST GLACIER N/A       35  30  82 W16        N/A   WCI  25
* MONARCH      N/A       38  19  46 SW11G16    N/A   WCI  31
* PENDROY      N/A       37  29  73 NW7        N/A   WCI  32
* ROGERS PASS  N/A       32  29  89 E9G19      N/A   WCI  24
* SWEET GRASS  N/A       33  29  85 SW14G20    N/A   WCI  23
$$

MTZ011-013-016-021-035-040-045-047-050-051-200100-
NORTH CENTRAL MONTANA
CITY           SKY/WX    TMP DP  RH WIND       PRES   REMARKS
HAVRE          CLOUDY    27  25  92 E6        29.78F WCI  20
LEWISTOWN      MOCLDY    36  25  64 SE5       29.80F WCI  32
* N BAR RANCH  CLEAR     34  25  70 NW3       29.83S
* CHESTER      N/A       32  27  82 N3         N/A
* DENTON       N/A       37  28  70 N1         N/A
* GEYSER       N/A       41  26  55 SW12       N/A
* JUDITH GAP   N/A       41  25  53 SW14G19    N/A
* LOMA         N/A       35  29  79 NE9        N/A   WCI  28
$$

MTZ017>020-022>027-061-062-200100-
NORTHEAST MONTANA
CITY           SKY/WX    TMP DP  RH WIND       PRES   REMARKS
GLASGOW        CLEAR     28  23  81 E9        29.86R WCI  19
GLENDIVE       CLEAR     34  25  70 SW7       29.90R WCI  28
JORDAN         PTCLDY    34  27  76 CALM      29.86S
SIDNEY         CLEAR     27  23  85 N6        29.91S WCI  20
WOLF POINT     CLEAR     28  25  89 NE5       29.88S WCI  22
* BEAVER HILL  N/A       33  24  70 S2         N/A
* CIRCLE       N/A       38  28  67 N/A        N/A
* LINDSAY DVD  N/A       33  25  72 S5         N/A   WCI  28
* NAVAJO       N/A       27  26  96 N/A        N/A
* SACO         N/A       27  24  88 E8         N/A   WCI  19
$$

MTZ028>042-056>058-200100-
SOUTHCENTRAL AND SOUTHEAST MONTANA
CITY           SKY/WX    TMP DP  RH WIND       PRES   REMARKS
BAKER          CLEAR     30  23  75 CALM      29.90R
BILLINGS       MOCLDY    37  19  48 W15       29.85F WCI  28
LIVINGSTON     MOCLDY    43  25  49 SW25G40   29.85S
MILES CITY     PTCLDY    37  23  57 W3        29.88S
* LAUREL APT   PTCLDY    37  16  42 N/A        N/A
* ROUNDUP APT  CLOUDY    43  19  38 S5         N/A
* ALZADA       N/A       32  21  64 E2         N/A
* HYSHAM       N/A       35  18  50 W4         N/A
* LAME DEER    N/A       36  20  52 SW2        N/A
* REED POINT   N/A       36  22  57 SE6        N/A   WCI  31
* ROSCOE HILL  N/A       41  13  32 S15G31     N/A
$$

REGIONAL REPORTS...DAKOTAS
CITY           SKY/WX    TMP DP  RH WIND       PRES   REMARKS
WILLISTON      FOG       23  21  92 N5        29.91S VSB M1/4 WCI  16
DICKINSON      CLEAR     30  23  75 CALM      29.88R
BEACH          CLEAR     27  25  92 SE3       29.90S
CROSBY         FOG       25  25 100 CALM      29.93R VSB 1/2
WATFORD CITY   CLEAR     27  27 100 CALM      29.88F
BISMARCK       PTCLDY    27  23  85 E5        29.95R WCI  21
GRAND FORKS    FOG       28  28 100 S7        30.02S VSB 3    WCI  21
FARGO          FOG       32  28  85 S14       30.03S WCI  22
BUFFALO SD     CLEAR     41  23  49 CALM      29.84S
RAPID CITY     CLEAR     34  25  70 CALM      29.93S
$$

REGIONAL REPORTS...WYOMING/IDAHO/WASHINGTON
CITY           SKY/WX    TMP DP  RH WIND       PRES   REMARKS
GILLETTE       PTCLDY    32  21  64 SW10      29.91R WCI  24
SHERIDAN       CLOUDY    34  21  59 CALM      29.87F
CODY           PTCLDY    27  16  63 N7        29.90R WCI  19
YELLOWSTONE LA PTCLDY    27  21  78 VRB5      30.02S WCI  21
SALMON         CLOUDY    34  28  79 N3        29.98R
MULLAN PASS    LGT SNOW  28  25  89 VRB6      29.87S VSB 1 1/2 WCI  21
SAND POINT     CLOUDY    37  37 100 S5        29.93R WCI  33
SPOKANE        CLOUDY    39  36  89 SW16      29.93R WCI  30

$$




USA.gov is the U.S. government's official web portal to all federal, state and local government web resources and services.